Satellite: MET-2/21 Catalog number: 22782 Epoch time: 09099.69778356 Element set: 426 Inclination: 082.5462 deg RA of node: 236.3271 deg Eccentricity: 0.0022453 Arg of perigee: 175.1514 deg Mean anomaly: 184.9867 deg Mean motion: 13.83635270 rev/day Decay rate: 5.1e-07 rev/day^2 Epoch rev: 78813 Checksum: 332
Satellite: OKEAN-4 Catalog number: 23317 Epoch time: 09099.73590850 Element set: 876 Inclination: 082.5408 deg RA of node: 038.3593 deg Eccentricity: 0.0020626 Arg of perigee: 228.0421 deg Mean anomaly: 131.9045 deg Mean motion: 14.82686590 rev/day Decay rate: 1.19e-06 rev/day^2 Epoch rev: 78222 Checksum: 312
Satellite: NOAA-14 Catalog number: 23455 Epoch time: 09098.88427638 Element set: 0575 Inclination: 098.9115 deg RA of node: 176.7984 deg Eccentricity: 0.0009738 Arg of perigee: 032.7827 deg Mean anomaly: 327.3921 deg Mean motion: 14.13760713 rev/day Decay rate: -6.9e-07 rev/day^2 Epoch rev: 73613 Checksum: 351
Satellite: NOAA-15 Catalog number: 25338 Epoch time: 09098.80891835 Element set: 0882 Inclination: 098.5817 deg RA of node: 089.5508 deg Eccentricity: 0.0009599 Arg of perigee: 259.3522 deg Mean anomaly: 100.6573 deg Mean motion: 14.24752128 rev/day Decay rate: -8.8e-07 rev/day^2 Epoch rev: 56689 Checksum: 366
Satellite: RESURS Catalog number: 25394 Epoch time: 09099.73094365 Element set: 185 Inclination: 098.3497 deg RA of node: 135.5435 deg Eccentricity: 0.0002451 Arg of perigee: 059.5259 deg Mean anomaly: 300.6162 deg Mean motion: 14.24181158 rev/day Decay rate: -3.7e-07 rev/day^2 Epoch rev: 55865 Checksum: 317
Satellite: FENGYUN1 Catalog number: 25730 Epoch time: 09098.92313182 Element set: 0731 Inclination: 098.7520 deg RA of node: 071.1687 deg Eccentricity: 0.0023117 Arg of perigee: 055.8779 deg Mean anomaly: 304.4579 deg Mean motion: 14.07958979 rev/day Decay rate: 1.11e-06 rev/day^2 Epoch rev: 51057 Checksum: 321
Satellite: OKEAN-0 Catalog number: 25860 Epoch time: 09098.77410203 Element set: 0646 Inclination: 097.7816 deg RA of node: 082.7339 deg Eccentricity: 0.0001809 Arg of perigee: 064.8365 deg Mean anomaly: 295.3023 deg Mean motion: 14.73566473 rev/day Decay rate: 4.6e-07 rev/day^2 Epoch rev: 52292 Checksum: 318
Satellite: NOAA-16 Catalog number: 26536 Epoch time: 09098.80361762 Element set: 0358 Inclination: 099.1765 deg RA of node: 100.7933 deg Eccentricity: 0.0011340 Arg of perigee: 114.3374 deg Mean anomaly: 245.8971 deg Mean motion: 14.12513174 rev/day Decay rate: -2.93e-06 rev/day^2 Epoch rev: 44050 Checksum: 299
Satellite: NOAA-17 Catalog number: 27453 Epoch time: 09098.86308371 Element set: 0367 Inclination: 098.4910 deg RA of node: 160.3004 deg Eccentricity: 0.0011050 Arg of perigee: 330.3913 deg Mean anomaly: 029.6638 deg Mean motion: 14.24052658 rev/day Decay rate: -1.20e-06 rev/day^2 Epoch rev: 35288 Checksum: 292
Satellite: NOAA-18 Catalog number: 28654 Epoch time: 09098.92131397 Element set: 0858 Inclination: 098.9020 deg RA of node: 042.7147 deg Eccentricity: 0.0013947 Arg of perigee: 195.2050 deg Mean anomaly: 164.8717 deg Mean motion: 14.11245643 rev/day Decay rate: -1.92e-06 rev/day^2 Epoch rev: 20018 Checksum: 314
Satellite: NOAA-19 Catalog number: 33591 Epoch time: 09098.81557291 Element set: 0063 Inclination: 098.7404 deg RA of node: 046.4011 deg Eccentricity: 0.0015139 Arg of perigee: 080.2715 deg Mean anomaly: 280.0144 deg Mean motion: 14.10948485 rev/day Decay rate: 3.5e-07 rev/day^2 Epoch rev: 00865 Checksum: 295
/EX SB KEPS @ AMSAT $ORB09099.M Orbital Elements 09099.MISC
HR AMSAT ORBITAL ELEMENTS FOR MANNED AND MISCELLANEOUS SATELLITES FROM WA5QGD FORT WORTH,TX April 9, 2009 Send Subscribe/unsubscribe to KEPS at http://www.amsat.org/mailman/listinfo/keps BID: ORB09099.M TO ALL RADIO AMATEURS BT
Satellite: HUBBLE Catalog number: 20580 Epoch time: 09098.61227370 Element set: 0364 Inclination: 028.4724 deg RA of node: 196.2788 deg Eccentricity: 0.0003873 Arg of perigee: 282.6898 deg Mean anomaly: 077.3245 deg Mean motion: 15.00472071 rev/day Decay rate: 3.26e-06 rev/day^2 Epoch rev: 83939 Checksum: 321
Satellite: PO-34 Catalog number: 25520 Epoch time: 09098.93053206 Element set: 0229 Inclination: 028.4601 deg RA of node: 358.6260 deg Eccentricity: 0.0005289 Arg of perigee: 265.6199 deg Mean anomaly: 094.3791 deg Mean motion: 15.17319089 rev/day Decay rate: 3.46e-06 rev/day^2 Epoch rev: 57812 Checksum: 324
Satellite: ISS Catalog number: 25544 Epoch time: 09099.83648148 Element set: 642 Inclination: 051.6405 deg RA of node: 297.2641 deg Eccentricity: 0.0009107 Arg of perigee: 217.6087 deg Mean anomaly: 326.9582 deg Mean motion: 15.72038023 rev/day Decay rate: 1.3269e-04 rev/day^2 Epoch rev: 59519 Checksum: 324
Satellite: CO-58 Catalog number: 28895 Epoch time: 09098.69648122 Element set: 0274 Inclination: 098.0702 deg RA of node: 351.2294 deg Eccentricity: 0.0017441 Arg of perigee: 201.7847 deg Mean anomaly: 158.2609 deg Mean motion: 14.59756208 rev/day Decay rate: 1.17e-06 rev/day^2 Epoch rev: 18359 Checksum: 343
Satellite: FALCON Catalog number: 30776 Epoch time: 09098.62640352 Element set: 0555 Inclination: 035.4333 deg RA of node: 161.4368 deg Eccentricity: 0.0001525 Arg of perigee: 008.7834 deg Mean anomaly: 351.2909 deg Mean motion: 15.03208173 rev/day Decay rate: 2.57e-06 rev/day^2 Epoch rev: 11462 Checksum: 281
Satellite: MAST Catalog number: 31126 Epoch time: 09098.85002241 Element set: 0567 Inclination: 097.9974 deg RA of node: 156.8085 deg Eccentricity: 0.0095700 Arg of perigee: 134.6986 deg Mean anomaly: 226.2050 deg Mean motion: 14.53487234 rev/day Decay rate: -1.20e-06 rev/day^2 Epoch rev: 10496 Checksum: 306
Satellite: CAPE1 Catalog number: 31130 Epoch time: 09099.85386432 Element set: 572 Inclination: 097.9985 deg RA of node: 156.1039 deg Eccentricity: 0.0104331 Arg of perigee: 136.6634 deg Mean anomaly: 224.2792 deg Mean motion: 14.52047388 rev/day Decay rate: 8.9e-07 rev/day^2 Epoch rev: 10477 Checksum: 318
Satellite: COMPASS Catalog number: 32787 Epoch time: 09098.33717474 Element set: 0327 Inclination: 097.9493 deg RA of node: 162.7329 deg Eccentricity: 0.0014654 Arg of perigee: 258.4128 deg Mean anomaly: 101.5439 deg Mean motion: 14.81573920 rev/day Decay rate: 1.85e-06 rev/day^2 Epoch rev: 05110 Checksum: 315
Satellite: AAUSAT2 Catalog number: 32788 Epoch time: 09098.64846947 Element set: 0334 Inclination: 097.9492 deg RA of node: 163.0893 deg Eccentricity: 0.0013992 Arg of perigee: 258.7383 deg Mean anomaly: 101.2246 deg Mean motion: 14.81695300 rev/day Decay rate: 9.3e-07 rev/day^2 Epoch rev: 05115 Checksum: 331
Satellite: DO-64 Catalog number: 32789 Epoch time: 09099.68193587 Element set: 336 Inclination: 097.9530 deg RA of node: 164.2367 deg Eccentricity: 0.0014525 Arg of perigee: 252.8154 deg Mean anomaly: 107.1462 deg Mean motion: 14.81659482 rev/day Decay rate: 5.56e-06 rev/day^2 Epoch rev: 5130 Checksum: 335
Satellite: CO-66 Catalog number: 32791 Epoch time: 09098.43965020 Element set: 0322 Inclination: 097.9517 deg RA of node: 162.8669 deg Eccentricity: 0.0015054 Arg of perigee: 257.3880 deg Mean anomaly: 102.5615 deg Mean motion: 14.81409488 rev/day Decay rate: 6.8e-07 rev/day^2 Epoch rev: 05108 Checksum: 326
Satellite: RS-30 Catalog number: 32953 Epoch time: 09098.64666522 Element set: 0277 Inclination: 082.4993 deg RA of node: 299.8671 deg Eccentricity: 0.0018890 Arg of perigee: 333.3497 deg Mean anomaly: 026.6607 deg Mean motion: 12.43000252 rev/day Decay rate: 1.0e-07 rev/day^2 Epoch rev: 03975 Checksum: 321
/EX
participants (1)
-
Ray Hoad